Orbital Elements at Epoch 2459200.5 (2020-Dec-17.0) TDB
Reference: JPL 19 (heliocentric ecliptic J2000)
Element | Value | Uncertainty (1-sigma) | Units |
e | .03369885403344952 | 4.3092e-08 | |
a | 3.001383699984462 | 3.1975e-08 | au |
q | 2.90024050878031 | 1.2649e-07 | au |
i | 11.82529433702164 | 4.9658e-06 | deg |
node | 202.3440928266327 | 1.9773e-05 | deg |
peri | 317.8070383027394 | 7.6736e-05 | deg |
M | 102.3036112979345 | 7.2453e-05 | deg |
tp | 2458660.779181833095 (2019-Jun-26.27918183) | 0.0003858 | TDB |
period | 1899.243751760001 5.20 | 3.035e-05 8.309e-08 | d yr |
n | .1895491295766503 | 3.029e-09 | deg/d |
Q | 3.102526891188613 | 3.3053e-08 | au |
|
| | Orbit Determination Parameters
Additional Information
|